Location: Bakhuizen
(52.8696°N, 5.4575°E)
Time: 04:53:35
(UTC+00:00)

Nimbus 7 Rocket - Pass Details

Date: 02 October 2021
Orbit: 922 x 965 km, 99.4° (Epoch: 17 October)

Event Time Altitude Azimuth Distance (km) Brightness Sun altitude
Rises 22:39:12 0° 21° (NNE) 3,591 8.1 -40.1°
Reaches altitude 10° 22:41:52 10° 31° (NNE) 2,647 7.2 -40.2°
Enters shadow 22:43:13 16° 39° (NE) 2,214 6.6 -40.2°
